{"data":{"norad_id":57635,"epoch":"2026-05-24T23:54:48.223008Z","epoch_age_seconds":78827,"freshness":"FRESH","line1":"1 57635U 23122D   26144.99639147  .00005083  00000+0  19418-3 0  9992","line2":"2 57635  43.0035  21.8580 0001527 273.9507  86.1170 15.27567040153879","mean_motion":15.2756704,"eccentricity":0.0001527,"inclination_deg":43.0035,"raan_deg":21.858,"arg_perigee_deg":273.9507,"mean_anomaly_deg":86.117,"bstar":0.00019418,"rev_number":15387,"period_min":94.267548480229,"perigee_km":482.04019417364,"apogee_km":484.13561225908,"semimajor_km":6861.2249032164,"source":"CELESTRAK","updated_at":"2026-05-25T13:38:18.362490Z"}}